Marietta, GA

7:54 AM EDT on March 27, 2017 (GMT -0400)
Dobbins Air Force Base

Weather History for KMGE - August, 2013

Change the Weather History Date:

Tuesday, August 6, 2013

  Actual Average Record
Temperature  
Mean Temperature 80 °F -  
Max Temperature 87 °F 85 °F 95 °F (2000)
Min Temperature 73 °F 68 °F 64 °F (1997)
Cooling Degree Days 14    
Growing Degree Days 30 (Base 50)    
Moisture  
Dew Point 71 °F    
Average Humidity 77    
Maximum Humidity 91    
Minimum Humidity 55    
Precipitation  
Precipitation 0.00 in - - ()
Sea Level Pressure  
Sea Level Pressure 29.99 in    
Wind  
Wind Speed 2 mph (WSW)    
Max Wind Speed 7 mph    
Max Gust Speed -    
Visibility 10 miles    
Events Rain    
Averages and records for this station are not official NWS values.
T = Trace of Precipitation, MM = Missing Value Source: NWS Daily Summary

Daily Weather History Graph

Daily Weather History Graph

Search for Another Location

Airport or City:

Trip Planner

Search our weather history database for the weather conditions in past years. The results will help you decide how hot, cold, wet, or windy it might be!

Date:

Astronomy

Aug. 06, 2013 Rise Set
Actual Time 6:53 AM EDT 8:33 PM EDT
Civil Twilight 6:26 AM EDT 9:00 PM EDT
Nautical Twilight 5:53 AM EDT 9:33 PM EDT
Astronomical Twilight 5:19 AM EDT 10:07 PM EDT
Moon 6:41 AM EDT (8/6) 8:12 PM EDT (8/6)
Length of Visible Light 14h 34m
Length of Day
13h 40m
Waning Crescent, 0% of the Moon is Illuminated
Aug 6
Waning Crescent
Aug 6
New
Aug 14
First Quarter
Aug 20
Full
Aug 28
Last Quarter

Hourly Weather History & Observations

Time (EDT) Temp. Heat Index Dew Point Humidity Pressure Visibility Wind Dir Wind Speed Gust Speed Precip Events Conditions
12:58 AM 74.1 °F - 70.2 °F 87% 29.99 in 10.0 mi Calm Calm - N/A   Overcast
1:58 AM 74.1 °F - 70.2 °F 87% 29.99 in 10.0 mi West 3.5 mph - N/A   Overcast
2:58 AM 73.4 °F - 70.7 °F 91% 29.96 in 10.0 mi Calm Calm - N/A   Mostly Cloudy
3:58 AM 73.2 °F - 70.5 °F 91% 29.96 in 10.0 mi NE 2.3 mph - N/A   Mostly Cloudy
4:58 AM 73.4 °F - 70.3 °F 90% 29.97 in 10.0 mi Calm Calm - N/A   Mostly Cloudy
5:58 AM 73.8 °F - 69.8 °F 87% 29.97 in 10.0 mi Calm Calm - N/A   Mostly Cloudy
6:58 AM 73.2 °F - 69.3 °F 87% 29.99 in 10.0 mi Calm Calm - N/A   Mostly Cloudy
7:58 AM 73.8 °F - 71.1 °F 91% 30.00 in 10.0 mi Calm Calm - N/A   Mostly Cloudy
8:58 AM 75.6 °F - 70.7 °F 85% 30.01 in 10.0 mi NW 2.3 mph - 0.00 in   Mostly Cloudy
9:58 AM 78.8 °F - 69.8 °F 74% 30.02 in 10.0 mi SW 3.5 mph - N/A   Mostly Cloudy
10:58 AM 82.0 °F 84.9 °F 67.8 °F 62% 30.02 in 10.0 mi SW 5.8 mph - N/A   Mostly Cloudy
11:58 AM 83.5 °F 85.5 °F 65.8 °F 55% 30.02 in 10.0 mi WNW 6.9 mph - N/A   Mostly Cloudy
12:58 PM 83.5 °F 86.7 °F 68.2 °F 60% 30.02 in 10.0 mi Variable 2.3 mph - N/A   Mostly Cloudy
1:58 PM 86.2 °F 90.0 °F 68.7 °F 56% 30.01 in 10.0 mi NNW 4.6 mph - N/A   Mostly Cloudy
2:58 PM 86.0 °F 91.5 °F 71.1 °F 61% 29.99 in 10.0 mi NW 5.8 mph - N/A   Mostly Cloudy
3:58 PM 85.8 °F 91.8 °F 71.8 °F 63% 29.97 in 10.0 mi West 6.9 mph - N/A   Mostly Cloudy
4:58 PM 86.2 °F 93.4 °F 73.2 °F 65% 29.97 in 10.0 mi WSW 6.9 mph - N/A   Overcast
5:58 PM 84.9 °F 91.4 °F 72.9 °F 67% 29.99 in 10.0 mi West 6.9 mph - N/A   Overcast
6:58 PM 84.2 °F 89.9 °F 72.0 °F 67% 29.97 in 10.0 mi West 2.3 mph - N/A   Overcast
7:58 PM 81.0 °F 85.4 °F 72.3 °F 75% 29.99 in 10.0 mi SE 5.8 mph - N/A   Overcast
8:58 PM 79.2 °F - 71.6 °F 78% 30.00 in 10.0 mi Calm Calm - N/A   Overcast
9:13 PM 78.8 °F - 71.6 °F 78% 30.02 in 7.0 mi SSE 3.5 mph - N/A Rain Light Rain Showers
9:16 PM 78.8 °F - 73.4 °F 83% 30.02 in 10.0 mi SE 2.3 mph - N/A   Light Drizzle
9:33 PM 78.8 °F - 71.6 °F 78% 30.02 in 10.0 mi ENE 2.3 mph - N/A   Overcast
9:58 PM 78.3 °F - 72.3 °F 82% 30.00 in 10.0 mi East 5.8 mph - 0.00 in   Overcast
10:58 PM 77.7 °F - 72.5 °F 84% 29.99 in 10.0 mi SE 2.3 mph - N/A   Overcast
11:58 PM 76.8 °F - 73.0 °F 88% 30.00 in 10.0 mi East 2.3 mph - N/A   Scattered Clouds